Location: Libas
(9.8833°N, 125.9833°E)
Time: 21:42:56
(UTC+00:00)

Cosmos 1140 Rocket - Pass Details

Date: 27 October 2020
Orbit: 744 x 767 km, 74.1° (Epoch: 25 November)

Event Time Altitude Azimuth Distance (km) Brightness Sun altitude
Rises 20:17:25 0° 182° (S) 3,194 6.8 -17.3°
Reaches altitude 10° 20:19:51 10° 177° (S) 2,266 6.1 -16.7°
Maximum altitude 20:24:49 52° 102° (ESE) 928 4.4 -15.5°
Drops below altitude 10° 20:29:45 10° 26° (NNE) 2,253 6.1 -14.3°
Sets 20:32:09 0° 21° (NNE) 3,174 6.8 -13.7°
